sat.trackr.live / text

‹ back to catalog

STARLINK-37367

NORAD 68971 · 2026-099W

PAYLOAD ACTIVE UNKNOWN

§ Identity

Operator
Country
US
Launch date
2026-05-01
Launch site
AFETR
Launch vehicle
Mass (kg)
RCS (m²)

Purposes: comms

External: N2YO · Heavens-Above · Gunter

§ Orbital elements

Epoch: 2026-05-25T04:00:03.998880Z

Period
92.55 min
Inclination
53.1595°
Eccentricity
0.0001098
Mean motion
15.55832722 rev/d
Perigee alt
399.0 km
Apogee alt
400.5 km
Semi-major
6,777.9 km
B*
-2.9992e-2
RAAN
270.3103°
Arg perigee
73.9059°
Mean anomaly
101.2796°
Rev number
485

§ Raw data

STARLINK-373671 68971U 26099W   26145.16671295 -.01867631  00000+0 -29992-1 0  99972 68971  53.1595 270.3103 0001098  73.9059 101.2796 15.55832722  4851

JSON: /api/v1/satellites/68971 · /tle

For live sub-satellite position, see the globe view (requires WebGL).

§ Visibility from observer

Set your observer location to see the next 7 days of passes ≥ 10°. The values pass through the URL so the page stays shareable.

No JS? Fill the form by hand. The geolocation button needs JavaScript.